Wind_Speed
16 16 16 16 16 16 17 17 17 17 17 18 18 18 18 18 18 18 18 18 19 19 19 20 20 21 24 26 26 27 29 27 24 21 15 6 5 6 8 10 13 15 15 14 14 14 13 13 14 15 13 11 10 9 13 13 10 10 9 12 13 14 15 14 16 15 14 14 16 18 19 19 16 18 14 13 16 17 19 12 5 4 11 16 18 22 24 24
16 16 17 17 17 17 18 18 19 18 18 18 17 17 17 18 18 18 18 18 19 19 20 21 21 21 23 25 24 25 28 25 23 21 13 9 9 8 10 13 15 15 12 12 13 13 11 10 12 13 12 9 10 11 13 12 12 12 9 13 14 14 16 16 19 18 17 18 15 17 19 18 15 14 12 14 19 21 19 11 11 9 15 20 19 22 23 23
17 17 17 17 18 18 18 19 19 19 18 17 17 17 18 18 18 19 19 19 19 19 20 21 21 23 23 24 24 25 25 23 20 12 6 9 9 8 11 11 9 7 7 11 14 14 14 13 14 13 12 10 10 12 14 12 12 14 12 14 15 16 19 21 22 20 20 22 19 14 18 18 16 13 11 14 19 20 17 12 16 16 13 19 18 21 21 21
18 18 17 17 18 18 18 18 19 18 18 18 18 18 18 18 18 19 19 19 19 19 20 20 21 22 23 25 23 24 23 19 9 3 6 4 3 3 6 5 3 4 8 13 15 15 16 15 15 14 12 11 12 14 15 14 12 12 15 17 16 17 20 22 23 21 22 24 19 15 14 18 18 15 14 17 17 14 14 15 19 18 12 20 19 20 20 19
19 18 18 18 18 18 19 18 18 18 18 19 18 18 18 19 18 18 19 19 19 19 20 20 22 22 24 25 22 21 17 9 2 7 5 2 2 3 3 5 5 6 11 14 15 15 15 15 14 13 11 11 13 14 15 18 15 12 18 23 21 20 21 19 21 24 23 23 20 18 19 15 15 17 19 20 16 12 15 16 19 19 12 18 19 18 18 16
18 18 18 19 19 19 19 19 19 19 19 19 19 18 18 18 18 18 18 18 18 19 19 21 21 22 23 23 22 19 10 5 2 7 6 1 3 6 7 8 9 9 13 15 15 15 13 13 12 12 11 12 15 16 16 19 18 14 18 24 24 25 24 18 19 24 23 22 21 19 19 17 15 17 19 21 17 15 19 17 14 10 11 18 17 16 16 16
18 18 18 19 19 19 20 20 20 21 21 20 19 18 18 19 18 18 19 19 18 18 19 20 20 21 22 23 21 14 10 11 5 7 5 2 5 8 10 11 10 11 14 15 15 13 11 13 13 12 12 13 15 18 18 19 21 19 18 22 26 29 27 22 21 21 22 23 22 20 20 21 22 17 17 20 18 17 19 17 10 11 20 19 17 16 15 15
18 18 19 19 20 20 20 21 21 21 21 21 21 20 20 20 20 19 19 19 18 19 19 20 20 19 20 20 15 9 8 6 4 8 1 5 5 7 10 11 11 13 14 14 14 13 12 13 14 13 12 14 15 17 18 18 21 22 22 22 24 27 26 24 24 25 24 21 21 23 24 24 25 19 17 20 20 17 15 18 14 8 16 16 16 17 14 13
18 19 20 20 21 21 21 22 22 22 22 22 22 21 21 21 22 20 19 19 19 19 19 19 19 17 17 14 10 8 5 4 8 4 2 3 5 7 10 12 13 13 14 14 14 14 12 11 13 13 13 16 16 17 19 17 16 19 24 23 23 26 26 24 25 28 26 19 19 24 27 26 26 20 17 23 21 15 16 22 18 9 13 14 13 14 14 13
20 20 21 21 21 22 23 23 23 23 23 22 22 22 22 21 22 21 19 20 19 18 19 19 17 16 15 12 10 8 2 1 2 2 3 5 9 11 12 14 14 13 14 14 15 15 13 12 13 13 13 15 16 17 19 17 15 18 24 24 26 28 25 23 24 28 25 21 25 25 25 26 25 20 15 19 20 15 15 18 15 12 13 15 13 12 13 12
21 20 21 21 22 23 23 23 22 22 22 22 21 22 22 22 22 21 20 20 19 19 18 17 16 14 14 11 8 7 3 6 8 5 8 11 12 14 14 14 13 13 14 14 15 16 16 15 14 11 9 11 14 18 18 19 18 20 24 23 27 28 24 24 24 26 22 20 28 28 26 25 22 21 19 18 15 13 15 7 7 12 11 12 11 10 11 10
21 21 22 22 23 23 22 22 21 21 21 22 22 22 23 23 23 22 21 20 19 18 17 17 14 12 13 10 11 15 13 15 15 14 15 14 14 16 16 15 15 15 15 14 15 16 16 16 15 13 11 9 12 13 14 18 20 21 23 21 24 25 23 27 25 24 22 18 25 27 24 24 22 23 24 21 12 11 13 9 8 7 9 9 8 9 9 10
22 22 22 23 23 23 22 22 21 21 22 23 24 24 23 23 24 23 22 20 19 17 18 16 12 12 11 8 12 19 19 18 17 17 17 14 15 17 17 17 16 17 17 16 16 17 17 15 15 15 14 12 11 10 10 15 18 19 21 18 18 18 19 25 23 24 25 19 22 23 17 19 25 27 24 20 9 10 11 13 15 7 11 9 8 10 9 11
23 23 22 22 23 23 23 22 22 23 24 25 26 26 26 26 26 23 20 20 18 16 16 12 10 11 9 10 17 21 20 19 18 18 18 16 16 16 16 16 17 17 16 17 17 17 18 16 14 13 13 13 12 12 13 13 14 15 18 14 13 13 14 21 23 26 27 19 23 23 13 15 24 27 23 18 11 9 12 15 17 11 9 10 9 10 11 11
22 22 22 22 23 23 23 23 23 24 25 27 28 29 29 27 24 20 18 19 16 14 13 10 10 9 8 13 16 15 14 16 19 19 15 14 15 14 13 14 14 14 14 16 16 15 17 16 13 10 10 13 13 13 11 10 10 11 13 12 13 13 13 19 22 26 28 21 25 25 14 15 23 26 22 18 15 14 16 16 15 13 9 9 9 10 12 11
22 22 23 23 23 23 24 23 24 25 26 28 30 32 30 26 21 17 16 17 13 11 11 9 13 13 8 7 4 5 10 14 14 10 8 9 11 11 10 11 11 11 13 14 14 13 15 14 11 10 11 12 12 11 9 9 10 10 11 12 14 15 13 16 18 24 27 21 23 25 16 15 18 22 20 17 18 19 18 17 15 12 9 9 9 9 12 11
22 22 23 24 24 24 24 24 25 26 27 30 32 31 26 19 14 13 14 13 10 9 11 12 12 11 9 6 5 8 7 8 7 3 5 7 8 10 9 10 10 12 14 16 15 13 13 11 8 9 10 10 10 10 10 10 10 9 11 11 15 18 16 15 15 20 25 21 21 24 21 19 16 19 19 16 19 23 21 19 15 13 12 11 10 10 12 12
22 22 23 24 25 25 25 25 25 27 29 31 30 28 24 17 14 16 16 12 8 9 13 15 9 4 7 9 10 8 5 5 6 4 8 9 9 11 11 12 11 12 13 13 14 13 11 9 8 9 9 10 11 11 11 12 12 13 13 12 14 19 19 18 15 15 21 24 25 26 23 23 22 19 18 17 19 21 21 20 16 15 16 13 12 12 12 12
22 22 23 24 24 25 26 26 26 26 28 27 25 27 23 13 11 14 14 10 7 6 7 8 8 6 6 6 10 11 10 11 10 7 10 12 12 14 15 15 12 12 11 8 11 13 10 8 9 10 9 11 14 14 15 16 19 19 17 15 15 17 17 18 18 15 19 23 26 27 22 22 26 23 19 17 17 17 19 19 16 15 15 13 13 12 12 13
23 23 23 24 24 24 25 26 26 25 24 24 25 25 17 6 4 4 6 9 10 11 13 10 11 13 13 12 14 16 14 13 12 11 13 14 14 15 14 13 12 11 10 10 10 12 11 10 10 11 13 16 18 20 21 21 22 22 19 17 18 17 15 18 20 17 20 20 21 25 24 23 25 24 21 17 14 17 20 19 16 16 15 13 14 13 13 13
23 23 23 23 24 24 25 26 24 20 18 19 20 16 9 9 8 8 7 12 16 18 20 19 18 19 19 18 17 17 13 13 15 13 14 13 13 13 9 10 12 9 11 14 12 10 12 11 12 15 17 19 20 21 22 22 24 22 18 16 17 17 15 19 20 18 21 18 16 23 26 25 25 22 21 20 18 17 20 21 19 19 15 13 14 14 14 11
23 23 23 23 24 25 25 24 19 15 14 13 13 10 9 12 10 12 13 12 16 20 20 20 21 19 19 20 18 16 13 12 15 15 15 14 12 11 8 10 12 10 12 14 11 10 11 12 15 18 18 19 20 20 22 23 23 19 16 15 15 15 15 18 21 21 20 14 14 23 24 22 25 23 21 23 21 16 18 21 19 19 16 13 14 12 14 12
22 22 23 23 24 25 24 20 14 12 10 10 11 10 11 13 13 14 12 10 14 17 17 18 18 16 16 16 15 14 13 12 13 14 15 15 12 12 11 11 12 13 13 13 12 10 10 12 17 20 19 20 21 21 22 21 18 16 15 14 13 15 16 14 18 23 22 15 16 21 19 16 20 21 20 21 22 18 15 13 13 16 16 15 14 11 14 14
22 22 22 23 25 25 22 18 12 9 8 9 10 10 12 13 13 14 11 8 11 13 13 14 13 12 12 8 6 10 11 10 10 12 12 12 11 10 12 13 13 13 13 15 17 14 14 14 16 20 21 21 21 21 21 16 13 16 18 16 14 18 21 17 17 20 20 19 21 21 15 12 15 19 19 18 20 21 15 11 12 15 15 15 14 13 15 15
22 22 22 24 25 24 20 14 10 10 9 7 9 11 12 12 12 13 10 7 8 7 8 10 8 6 6 4 2 6 9 10 11 12 11 9 11 10 10 10 10 12 15 18 18 15 16 18 16 19 21 21 21 18 20 17 11 14 19 20 19 21 23 22 20 17 13 15 21 21 14 11 15 19 19 17 17 19 17 18 19 17 17 17 13 13 15 16
22 22 24 24 24 23 16 7 7 12 9 7 10 12 12 11 12 11 7 5 5 2 5 6 6 3 3 6 5 5 8 8 9 12 12 11 11 10 9 8 8 12 15 15 13 9 12 18 19 19 19 20 20 17 20 20 13 11 15 21 23 25 24 23 24 19 12 12 18 21 15 9 12 17 20 18 18 21 19 21 24 19 17 18 14 12 13 17
23 24 25 24 20 17 11 7 11 11 6 7 12 12 12 12 13 10 5 4 3 2 4 3 2 3 2 4 7 6 5 2 4 9 12 12 11 10 10 10 9 11 11 9 8 8 11 18 20 20 19 17 16 14 18 20 15 10 15 20 23 26 26 24 24 18 12 12 16 22 18 10 9 14 19 21 20 22 22 22 25 23 19 18 16 14 13 18
27 27 25 22 15 8 8 9 11 8 6 11 12 11 11 12 12 7 3 4 2 1 2 2 3 3 2 5 5 8 8 7 6 6 7 11 12 10 11 13 14 14 12 9 9 9 12 17 18 19 17 13 13 14 18 21 16 13 17 20 20 24 26 25 21 14 13 14 14 19 20 12 10 11 17 23 23 22 24 25 26 25 22 19 17 16 14 19
30 27 23 20 10 4 6 7 8 8 9 12 11 11 12 11 9 3 3 3 3 2 1 1 2 2 2 6 8 10 10 9 8 5 6 10 11 10 10 13 15 17 16 13 11 11 12 14 16 17 14 12 14 16 18 21 16 15 19 20 18 20 22 22 16 11 13 13 12 18 19 12 9 12 13 19 21 21 22 22 22 22 22 20 17 17 16 18
30 27 20 15 7 3 4 7 8 10 11 11 11 11 12 8 5 3 4 2 3 6 3 1 1 4 6 6 7 10 10 10 9 7 8 10 11 11 11 13 13 13 14 14 14 14 15 16 14 13 12 12 15 16 17 20 19 17 19 17 15 16 17 16 12 9 10 10 13 20 21 15 10 12 13 12 16 20 19 16 19 21 23 22 18 16 16 18
30 24 14 8 6 6 5 4 4 9 10 11 11 10 9 5 2 4 3 3 6 8 5 2 6 8 7 6 5 7 9 9 10 10 9 8 10 10 10 10 10 9 10 11 12 14 17 17 12 11 13 14 15 15 16 18 20 18 15 13 12 11 13 12 9 9 9 8 13 21 24 19 13 10 12 13 16 22 19 16 21 23 23 22 18 17 17 18
26 16 6 4 3 3 5 6 9 10 9 9 9 7 5 3 2 4 4 6 6 6 5 4 8 7 5 7 7 8 9 9 10 12 12 9 7 9 10 8 6 8 9 9 10 13 14 15 14 14 15 15 15 13 12 15 17 16 14 13 10 8 9 9 9 8 7 7 12 20 22 18 13 11 14 18 19 22 19 17 20 23 23 20 19 19 16 17
20 8 2 3 1 3 5 7 8 8 7 8 7 4 3 3 2 4 7 6 3 6 6 5 8 11 10 9 10 12 11 11 12 12 13 12 10 10 12 12 12 11 8 9 9 9 10 12 15 16 13 14 16 12 9 11 13 14 14 13 11 8 8 9 9 8 7 9 15 22 20 13 12 13 17 20 18 20 20 18 19 22 21 19 19 20 18 19
12 4 2 2 4 4 5 6 6 7 7 7 5 3 2 4 4 6 9 7 6 10 10 8 11 13 12 11 12 12 9 9 11 11 11 10 9 8 9 14 18 13 9 10 8 7 10 9 11 14 11 12 17 15 11 11 12 13 15 14 11 9 7 7 8 8 8 9 15 20 16 11 10 10 17 21 17 16 19 18 18 19 19 17 18 20 19 20
8 5 3 3 6 5 4 5 4 5 6 5 3 3 4 4 5 7 7 7 9 11 12 13 12 12 10 10 12 12 8 6 6 8 8 8 8 8 9 11 15 13 9 10 6 7 11 9 10 14 15 16 16 15 14 13 11 11 14 13 10 10 8 6 7 10 9 8 10 12 8 8 10 9 15 20 20 18 19 21 19 19 20 18 17 19 18 17
9 6 6 6 5 2 2 3 3 4 4 4 3 4 5 4 4 6 6 7 8 9 13 13 7 7 7 6 8 8 5 6 7 6 6 9 11 11 11 8 10 12 11 9 6 6 8 8 10 14 18 19 17 15 16 13 9 8 11 12 12 14 11 6 7 10 10 9 7 7 7 9 11 11 10 16 20 21 19 23 21 19 21 19 16 17 17 16
11 6 5 5 2 1 2 3 3 4 3 3 3 5 6 5 5 7 7 6 6 4 7 7 1 2 5 6 6 5 2 5 7 6 5 8 8 9 10 9 9 11 13 12 7 4 6 7 11 14 18 19 17 17 18 17 12 7 9 13 14 15 12 7 6 8 9 9 6 9 13 12 11 8 8 15 21 20 17 22 20 18 19 19 16 16 18 16
13 10 4 2 3 2 2 2 3 4 3 3 5 7 7 7 10 9 4 4 6 3 2 4 1 1 4 6 6 6 5 5 4 5 5 5 3 4 7 8 9 12 15 15 9 2 2 5 10 15 17 18 16 17 16 18 19 14 11 13 13 11 11 8 6 6 10 9 7 12 16 13 11 10 10 15 19 17 16 19 18 18 17 17 15 16 18 16
13 11 4 5 4 2 2 2 3 4 3 3 6 6 6 10 12 10 4 2 3 1 2 4 3 2 4 7 8 8 9 8 6 5 4 3 2 4 7 6 7 10 11 11 7 2 2 1 7 12 17 17 13 12 11 12 17 16 13 11 11 9 9 9 7 6 9 9 7 12 14 11 10 10 12 16 16 14 14 17 15 16 16 15 15 15 15 15
10 7 2 7 5 4 5 3 4 4 3 4 6 7 9 12 11 12 11 5 2 1 2 3 3 4 5 8 10 9 7 8 9 7 4 5 5 5 7 5 4 6 8 9 8 4 3 5 5 9 14 15 10 10 12 12 12 12 10 9 10 9 8 9 8 7 8 7 7 9 9 9 8 9 13 17 16 13 12 15 13 13 15 15 14 14 13 14
8 6 2 8 7 7 6 2 3 4 4 6 7 8 11 12 10 14 13 2 5 3 3 4 5 5 6 8 9 7 6 7 8 7 5 5 3 2 3 4 4 6 8 8 8 5 4 5 6 7 8 11 11 12 15 15 11 10 9 9 11 11 9 8 8 8 7 7 7 7 7 8 8 9 10 12 12 12 12 16 12 11 15 16 13 14 14 15
6 4 3 10 8 7 3 4 3 5 4 6 10 10 11 11 10 13 11 1 5 3 2 4 5 5 6 7 7 8 8 7 6 6 6 3 2 2 2 5 5 5 4 4 6 6 5 3 5 8 7 10 14 16 16 17 14 11 11 11 13 12 11 8 7 7 7 9 10 9 7 6 6 7 7 9 9 9 10 14 11 10 12 15 15 15 14 15
5 4 5 10 9 6 4 7 4 4 4 8 13 13 12 12 10 11 12 6 1 3 2 2 3 4 5 6 7 9 8 6 7 6 5 4 0 2 3 7 9 7 3 4 5 4 4 2 3 8 8 9 12 15 16 15 13 11 11 12 13 13 12 9 7 7 7 9 11 9 7 5 3 3 5 10 11 9 8 11 12 11 10 13 17 16 15 16
6 6 4 9 9 6 5 7 6 7 9 11 14 13 12 11 10 10 13 12 3 4 3 1 3 4 5 7 9 10 8 6 8 7 4 4 0 3 5 10 10 7 5 2 2 1 2 1 2 4 5 7 7 9 12 12 10 8 9 12 15 17 16 12 9 9 6 8 11 9 6 5 3 2 6 11 12 12 12 12 12 11 10 13 15 14 15 16
8 6 2 7 10 8 6 6 6 8 10 14 15 15 13 10 9 10 13 14 6 3 4 2 3 4 7 9 9 11 9 7 6 7 6 4 1 4 7 11 10 7 8 9 6 3 1 2 1 2 4 7 7 7 8 9 8 8 11 15 18 22 21 13 7 7 3 6 10 7 4 4 3 4 9 12 11 12 13 13 12 10 10 12 12 13 15 16
6 4 3 1 5 6 6 6 7 6 9 12 10 12 15 13 11 11 12 13 9 1 3 2 2 3 6 8 9 9 9 8 9 7 6 5 2 3 6 9 9 6 4 6 5 1 0 3 4 5 5 4 6 8 10 10 9 10 14 17 20 22 22 14 5 4 4 7 8 4 2 5 5 8 9 11 10 8 8 11 12 9 9 10 10 13 14 14
4 4 6 5 4 5 5 6 7 6 9 12 8 9 15 15 13 12 9 10 12 7 1 4 1 2 4 6 7 8 9 7 7 7 8 8 4 3 7 7 9 6 0 1 4 2 1 4 6 6 7 9 8 6 12 15 14 15 16 17 18 19 19 12 6 5 6 7 5 0 3 4 8 10 7 7 8 4 1 6 9 7 9 11 11 13 16 16
4 5 5 6 5 6 7 8 9 11 15 13 8 11 15 16 16 13 11 11 13 11 4 2 4 5 7 7 6 7 9 8 5 7 8 8 7 0 7 6 8 8 5 5 4 4 3 5 6 7 7 8 8 7 10 14 14 14 15 15 16 17 19 14 9 9 9 7 3 1 2 4 5 6 5 1 5 6 1 1 6 8 7 10 13 13 14 17
5 4 5 8 6 8 10 12 14 16 14 8 8 10 14 18 18 15 13 12 13 12 10 7 3 4 8 8 6 6 8 7 6 7 8 8 9 6 3 5 5 7 8 6 5 2 3 4 5 8 9 9 11 12 13 15 13 14 16 17 17 17 19 15 12 11 11 9 5 2 3 3 4 4 8 5 4 6 4 3 6 9 9 8 9 10 8 9
5 4 6 7 8 9 11 12 13 13 10 8 9 11 14 17 18 17 14 12 13 13 13 13 9 5 8 7 5 8 9 9 9 9 8 8 8 7 2 1 3 5 7 7 4 1 2 4 4 3 6 10 12 12 12 16 16 15 16 18 18 18 17 15 11 9 9 8 6 2 3 2 4 1 8 6 3 4 4 2 4 8 10 11 8 7 7 8
9 8 7 7 8 9 10 10 10 9 8 8 9 12 14 17 18 19 15 11 12 13 15 17 11 3 5 6 3 9 12 12 13 11 10 10 8 7 5 3 3 3 4 5 4 2 1 3 4 2 3 7 8 8 6 10 15 15 15 16 17 17 15 12 9 8 7 6 6 6 3 1 2 0 6 4 2 4 5 5 4 3 9 14 11 8 11 13
11 10 8 7 8 9 9 9 9 8 7 9 12 14 15 16 18 18 13 8 11 14 14 15 9 2 1 4 5 9 12 13 13 11 9 10 10 11 9 8 8 6 4 5 4 2 2 1 2 3 3 6 9 12 12 9 11 11 11 13 14 14 13 11 10 9 9 7 5 6 3 4 2 2 2 3 4 3 3 4 4 2 5 11 15 16 16 16
Wind_Direction
358 356 355 353 351 350 348 348 346 345 344 344 344 343 344 342 340 339 338 337 337 335 334 332 331 331 326 325 328 333 334 325 316 306 292 268 233 244 269 280 284 290 301 307 294 283 277 262 249 242 242 234 228 226 228 229 229 231 227 231 231 234 232 229 234 231 244 243 203 205 244 257 225 215 226 232 240 248 245 241 239 187 112 103 114 124 132 136
356 354 352 350 349 346 346 344 342 342 341 341 340 341 341 340 339 337 336 335 334 334 333 332 331 330 323 321 329 335 331 317 302 293 276 240 237 248 265 276 280 285 294 298 293 285 276 265 250 232 230 232 224 220 220 219 221 225 227 233 230 230 235 232 236 236 239 249 234 201 208 247 255 226 213 213 223 234 243 263 270 228 125 119 129 129 137 140
353 352 350 348 346 344 344 343 342 341 338 337 337 338 337 337 338 335 335 335 333 333 331 332 331 328 323 322 327 334 327 307 296 287 226 215 232 254 272 281 281 276 288 292 291 289 284 276 266 247 230 230 228 220 216 212 216 223 226 235 231 227 236 235 236 237 238 244 249 232 195 205 241 248 230 214 216 225 229 227 246 239 152 134 138 137 145 146
350 348 347 346 345 343 342 341 340 339 336 335 335 335 335 334 335 333 333 332 332 332 329 331 328 325 325 322 326 333 321 300 298 75 119 163 215 279 280 276 263 273 296 293 288 284 279 272 269 260 241 231 228 225 221 213 212 219 223 235 234 229 236 233 235 238 241 247 249 252 227 200 207 230 239 228 226 238 240 220 226 237 181 150 149 146 147 150
349 346 345 344 342 341 340 339 337 336 334 332 333 333 332 332 331 331 330 330 331 329 330 329 325 326 323 321 327 327 315 300 73 114 129 110 58 338 303 266 261 286 299 294 289 280 269 260 258 254 248 237 226 224 225 218 216 224 227 235 234 233 240 231 232 239 241 252 251 244 246 232 206 215 233 232 228 242 251 230 215 229 202 154 149 144 144 152
348 345 344 342 340 339 337 337 335 334 333 330 330 329 328 327 327 327 325 326 326 326 328 327 325 325 322 324 321 308 289 295 15 136 164 125 343 322 324 302 279 281 290 287 282 276 262 249 243 242 241 238 231 225 226 222 219 229 230 233 232 231 239 235 229 234 235 243 246 240 240 245 233 217 222 227 226 240 252 241 210 188 141 132 138 141 146 155
346 344 342 340 339 337 335 334 333 331 330 327 326 325 324 324 323 324 323 323 324 324 324 325 325 322 323 328 318 288 245 273 298 132 156 328 339 332 337 323 292 278 277 274 271 267 259 245 236 237 237 236 236 231 230 227 224 230 233 232 233 232 233 235 236 237 234 233 237 246 245 241 237 225 215 214 205 222 250 254 229 127 120 137 147 146 150 157
343 341 340 339 337 335 334 332 331 330 328 326 325 324 324 322 321 321 320 320 321 320 321 323 323 319 322 325 319 292 260 273 118 131 210 337 348 332 325 308 286 274 265 262 264 264 263 249 237 236 238 238 237 236 234 233 230 230 234 233 233 235 231 228 235 241 241 236 229 235 246 247 241 237 231 224 206 200 225 242 237 145 133 148 147 143 148 159
341 340 339 338 336 334 332 331 331 329 328 325 324 323 322 321 319 317 316 316 316 316 319 320 318 317 317 310 300 293 293 88 113 153 258 334 319 305 301 289 281 273 263 258 259 262 263 254 245 239 241 246 243 242 237 234 234 229 232 235 234 237 232 225 228 234 238 242 239 229 233 241 244 247 246 244 234 208 207 220 218 171 142 137 134 142 149 161
340 340 339 338 336 334 333 331 329 328 327 325 322 320 318 317 316 314 311 313 315 313 314 316 314 313 309 296 281 279 271 157 243 259 265 289 298 293 286 281 277 271 265 262 257 255 254 253 257 252 250 252 249 247 240 235 238 237 237 236 236 238 236 230 227 230 231 234 244 242 236 233 231 238 249 245 236 229 228 211 198 196 169 135 133 147 149 161
337 338 339 337 336 335 333 331 328 327 326 324 321 316 314 312 311 310 309 311 311 309 311 310 310 306 296 289 274 257 269 293 285 286 284 288 291 287 283 276 273 270 266 266 260 256 256 258 264 263 254 250 248 249 247 244 245 243 243 242 237 237 237 236 232 229 228 226 232 240 249 245 230 225 236 240 216 225 256 230 198 219 185 128 127 146 143 152
336 336 336 335 335 333 332 331 327 325 324 322 319 314 311 307 306 307 308 309 305 303 304 299 298 293 283 279 252 246 267 289 288 285 285 287 282 278 278 271 264 262 263 265 263 259 258 259 261 258 255 256 248 248 250 247 248 245 243 247 242 236 234 233 232 230 228 225 223 227 241 246 241 230 233 244 202 185 243 253 262 237 147 130 140 153 145 144
336 334 333 334 333 331 330 328 325 323 322 321 317 314 309 305 306 307 307 305 299 295 293 289 285 276 274 271 251 255 270 280 282 282 278 275 275 274 270 263 258 254 255 259 264 265 261 259 259 256 258 261 253 262 270 247 243 245 240 242 244 240 232 225 226 231 231 228 220 220 229 232 238 238 234 246 216 173 210 218 241 230 131 156 172 158 152 145
336 333 333 334 332 331 329 326 324 322 321 319 317 313 308 307 307 304 303 302 297 293 287 279 266 259 259 261 264 269 272 274 277 277 273 267 265 268 264 255 251 248 248 252 257 264 266 267 267 262 258 257 261 274 276 252 237 238 239 238 237 238 232 223 218 223 227 230 225 223 229 229 232 236 228 226 224 225 221 204 218 217 151 166 180 159 153 153
336 335 334 333 333 332 329 325 324 321 320 318 315 311 308 308 303 297 301 300 294 287 279 266 244 240 260 263 267 273 264 260 264 264 264 259 253 254 257 255 250 244 246 250 249 252 257 261 264 260 252 247 255 264 262 256 242 229 232 231 228 230 233 229 218 218 220 219 225 224 228 232 227 231 225 206 210 234 235 218 210 205 179 171 177 167 157 162
337 336 334 333 332 331 329 326 324 322 320 316 314 311 308 305 297 294 299 295 285 268 256 247 222 218 264 287 281 276 249 242 252 259 246 243 250 252 264 278 274 261 258 255 249 247 246 247 250 250 252 244 236 242 245 247 239 224 225 225 225 223 226 229 217 218 220 213 221 220 221 236 224 225 223 192 196 223 234 229 208 190 192 183 181 181 163 165
336 335 333 332 330 330 329 326 324 321 318 317 315 312 306 300 292 292 298 292 281 252 230 238 231 218 243 263 276 285 276 246 233 232 235 238 252 259 272 280 275 268 260 252 244 242 239 235 239 241 242 239 226 225 230 229 225 219 220 224 227 224 222 224 214 214 214 210 223 221 218 232 227 222 220 196 197 212 225 230 207 181 191 194 192 196 176 167
335 333 331 330 330 329 328 326 325 321 318 318 316 312 307 296 285 283 283 278 268 247 232 240 254 257 237 236 256 280 328 286 223 218 256 253 250 253 262 265 267 266 258 248 233 225 230 225 226 235 228 226 225 220 221 222 222 218 216 218 224 225 224 221 216 210 203 205 221 224 220 226 230 227 219 212 209 207 217 224 211 196 196 195 197 201 181 166
334 332 330 330 330 329 327 326 323 321 321 322 323 324 318 298 274 266 255 245 234 239 255 234 207 227 270 272 265 270 285 267 230 220 251 253 256 258 255 253 256 256 255 252 221 209 218 221 221 230 225 219 218 219 223 224 226 228 225 223 224 227 228 226 223 217 212 210 214 220 221 221 226 227 220 218 211 206 222 220 204 207 200 193 207 205 179 167
333 333 331 330 330 329 327 323 321 323 325 323 325 327 327 325 294 264 231 246 257 264 280 272 230 242 269 277 274 282 291 273 244 230 240 244 250 257 253 244 243 240 240 245 229 206 208 221 220 223 226 224 219 221 227 228 230 235 236 233 231 229 229 231 226 218 226 224 209 212 222 225 224 223 220 225 214 207 227 224 198 203 199 192 214 206 179 174
333 333 332 331 330 328 325 322 322 326 325 319 316 314 336 12 351 336 321 289 281 275 272 269 261 261 267 271 278 286 291 280 268 258 253 249 242 245 242 230 234 237 230 237 243 223 211 222 226 223 227 231 227 223 226 230 233 235 239 241 236 232 228 229 226 216 224 231 211 206 218 229 228 222 217 223 226 213 222 227 205 195 191 191 217 205 179 177
333 332 332 330 330 328 324 323 323 324 322 315 305 304 346 10 352 331 323 296 282 276 268 266 264 263 266 269 271 272 270 266 266 266 257 247 238 234 227 223 228 237 233 230 240 237 224 226 228 229 229 231 235 231 225 229 233 234 237 242 241 237 229 225 227 223 221 225 220 210 212 223 227 227 223 216 221 224 228 228 205 185 183 193 218 204 174 168
332 332 332 331 331 328 323 324 320 310 304 292 300 327 344 343 337 328 316 294 288 279 264 256 252 250 253 256 253 243 249 255 256 261 244 223 227 230 228 236 234 236 240 231 229 233 233 225 223 231 235 231 232 233 230 227 230 234 234 236 239 242 240 225 219 224 223 221 225 221 214 216 219 223 232 221 211 219 228 220 187 176 184 199 212 193 170 163
331 331 331 331 329 326 325 324 314 306 299 285 305 347 348 335 333 330 317 287 285 281 262 242 235 244 241 246 255 223 231 250 250 264 250 210 213 226 226 241 246 240 239 238 236 234 239 237 219 221 232 236 234 231 231 230 227 229 231 234 234 238 245 240 220 216 223 224 223 226 222 213 212 212 224 225 207 208 210 189 179 183 191 204 206 187 173 159
332 331 330 330 326 326 326 319 317 332 333 323 334 349 343 336 335 332 324 293 281 268 240 220 213 237 220 189 215 225 242 255 245 258 262 221 214 229 227 231 245 248 242 241 242 239 240 244 233 221 222 230 237 235 229 229 232 227 226 231 237 239 241 246 238 218 217 226 216 220 228 212 208 212 219 218 203 205 202 189 192 194 196 205 203 191 178 155
332 330 328 327 325 329 329 320 334 331 323 341 353 343 334 334 334 333 321 283 285 230 170 182 190 183 183 185 187 231 258 256 250 256 253 233 225 240 249 233 230 244 248 246 244 245 241 243 243 236 226 223 230 238 233 229 231 231 224 223 234 243 242 248 248 230 218 224 211 215 229 222 210 216 220 216 204 204 204 196 197 199 199 200 200 199 176 148
330 328 326 324 326 332 329 326 334 323 313 347 349 339 336 339 331 325 305 270 276 205 160 150 185 164 193 205 175 202 251 272 287 266 245 232 223 233 248 248 244 238 241 246 242 241 241 243 244 239 235 230 226 230 235 234 230 232 231 221 225 237 244 250 248 238 231 228 218 214 215 218 222 215 210 211 208 205 208 202 193 195 200 195 197 204 173 147
330 329 326 324 325 314 289 301 318 319 334 339 335 334 334 334 327 316 288 295 326 222 191 110 82 123 211 267 225 232 266 283 284 283 261 240 223 229 240 241 251 251 245 244 243 241 236 240 244 239 238 238 234 226 229 237 233 227 235 229 222 229 240 247 241 237 240 231 223 213 203 205 230 225 204 203 207 207 211 206 189 188 199 197 198 202 172 148
330 330 326 324 318 258 251 270 286 296 318 323 320 326 324 318 319 300 241 294 352 355 329 99 110 159 230 280 263 253 264 267 268 295 294 256 223 225 247 248 252 257 258 256 254 255 249 245 246 244 243 240 241 231 225 237 237 227 235 237 230 227 235 241 233 240 250 238 228 212 200 200 227 238 216 199 203 208 212 205 187 187 198 197 201 200 170 147
333 332 329 323 311 288 249 232 256 282 301 315 314 318 316 308 309 280 255 295 334 330 346 104 2 358 349 317 280 273 273 270 275 277 279 272 246 234 248 262 262 258 259 255 252 254 258 266 266 257 254 250 251 241 224 235 244 235 232 235 234 227 229 237 233 247 261 243 226 212 202 202 216 233 232 212 200 204 211 199 182 189 197 195 200 198 172 153
334 332 329 313 298 314 295 251 304 316 312 317 313 312 307 294 279 275 303 352 319 327 1 23 12 23 5 327 301 294 288 278 276 266 256 258 260 254 248 252 257 256 253 249 248 246 245 252 258 260 259 257 262 251 223 227 243 242 229 226 233 222 218 230 232 243 256 243 223 212 206 209 214 218 232 237 211 199 207 198 181 187 196 195 196 192 178 162
335 332 329 330 290 275 299 312 334 332 325 322 311 303 300 297 254 245 309 342 317 345 11 325 341 356 318 294 265 253 263 263 258 256 251 239 238 249 242 234 237 242 241 236 238 242 239 238 236 244 250 250 260 254 222 219 234 238 227 218 222 218 210 218 224 229 243 256 240 218 207 213 223 214 223 238 217 197 206 200 182 186 195 195 191 186 179 168
334 325 291 359 327 229 295 317 326 326 327 324 308 295 288 290 287 279 316 329 322 349 343 305 321 318 299 287 262 254 260 258 250 248 252 247 240 238 234 235 241 245 250 244 239 240 242 239 234 238 242 241 250 247 219 215 224 229 227 215 209 213 206 204 215 220 228 252 242 221 210 219 233 215 217 235 223 197 201 199 183 186 194 192 188 186 179 174
330 288 213 294 259 255 310 318 323 323 314 311 306 307 276 259 281 318 325 327 329 328 322 317 318 305 287 272 268 275 275 261 250 245 247 245 245 248 240 233 230 235 257 257 249 246 247 244 231 230 228 227 239 242 229 223 225 227 226 221 217 218 208 201 210 212 212 229 228 216 209 218 230 211 205 224 235 210 193 191 184 183 190 190 187 188 181 176
316 262 195 228 245 253 310 309 317 317 300 298 301 289 278 277 308 328 330 332 330 320 314 310 299 287 282 272 272 275 261 249 254 247 246 242 238 243 243 233 221 216 235 248 244 247 251 253 238 230 225 223 229 232 230 230 229 224 220 220 219 211 206 211 219 220 220 227 224 216 210 210 230 242 207 205 231 227 188 180 186 182 186 190 187 188 181 175
318 268 201 212 238 234 307 302 313 307 290 295 301 291 302 314 318 327 340 333 325 318 312 307 280 266 288 287 293 290 240 233 260 260 257 248 241 240 241 244 230 216 221 237 241 248 251 254 252 237 221 221 226 220 220 229 230 217 216 221 220 212 211 214 214 220 231 239 230 217 217 210 220 247 223 197 222 230 190 175 187 187 185 188 187 184 179 175
325 293 213 205 196 79 347 311 286 275 277 290 283 290 309 313 303 319 340 327 311 309 307 310 296 264 297 295 311 324 267 245 255 256 263 252 243 242 239 237 234 224 224 234 244 256 259 271 276 252 218 211 222 220 217 224 228 222 215 218 221 219 217 220 210 205 220 236 235 218 219 219 212 213 206 200 216 224 190 171 185 192 187 187 185 178 177 174
307 289 269 136 109 64 340 293 255 259 264 273 269 272 287 302 311 325 349 316 309 318 288 295 293 233 297 303 311 314 299 283 255 242 259 265 281 285 250 227 224 225 218 221 230 230 241 281 289 263 224 201 210 217 214 219 225 235 235 219 218 218 209 213 220 203 206 214 222 220 220 227 225 202 189 202 216 217 184 169 184 194 188 185 180 176 176 163
288 275 250 141 136 126 162 211 235 253 256 278 289 293 304 313 320 332 345 294 302 336 288 278 263 246 277 291 300 302 295 290 283 284 286 261 253 276 256 222 217 228 210 199 208 183 128 239 293 265 219 194 197 207 207 212 217 230 246 236 225 223 209 211 227 227 214 205 206 217 219 226 228 210 198 202 215 220 182 163 187 197 184 180 175 174 175 152
280 281 205 158 171 155 144 181 227 243 248 268 289 305 316 318 325 329 323 297 195 172 265 270 267 274 287 292 293 293 296 301 299 300 286 232 207 226 238 205 187 213 192 182 195 194 181 207 276 269 215 194 191 199 204 206 205 216 235 246 239 225 211 213 224 231 222 208 208 214 217 223 219 215 210 196 202 222 184 160 188 197 177 173 169 170 173 153
291 300 194 162 166 155 149 181 227 234 243 265 290 308 319 325 326 321 317 261 167 185 232 261 276 273 283 296 296 299 306 305 299 291 272 244 201 223 231 173 156 182 181 192 203 200 215 226 264 271 219 197 194 194 203 208 207 210 217 241 248 226 210 215 217 225 230 222 220 220 220 216 205 212 212 186 195 219 185 167 188 192 174 170 167 172 173 156
280 313 142 154 158 164 205 284 255 230 241 292 315 323 326 326 320 318 323 124 147 163 207 254 275 270 278 288 296 309 313 303 292 288 287 278 146 127 151 137 135 147 172 237 237 219 232 246 281 272 230 205 197 190 201 210 211 217 218 232 244 226 212 218 212 219 240 241 231 229 230 214 195 207 190 170 202 219 177 170 186 190 178 171 169 175 173 158
282 337 122 154 171 187 261 309 310 295 310 319 323 329 324 316 319 326 332 344 106 148 174 260 264 260 282 298 301 307 314 305 287 284 295 302 156 136 147 142 144 148 168 278 289 262 242 215 279 266 224 201 201 190 196 209 214 223 227 232 237 225 212 216 218 216 228 238 230 227 232 211 190 219 176 168 197 203 175 180 190 191 183 168 168 170 163 155
305 299 168 169 189 214 279 318 329 329 330 325 326 330 314 305 329 343 334 338 1 157 177 246 246 244 272 295 295 294 302 297 291 306 317 297 5 118 158 157 162 169 161 199 277 285 272 285 297 263 197 180 206 197 188 202 214 226 238 238 235 229 218 213 224 224 223 241 234 224 218 192 168 206 174 169 189 192 183 191 196 196 181 164 165 159 147 146
303 285 181 165 190 222 264 286 302 314 325 328 326 322 314 317 347 350 334 336 350 150 174 229 249 247 268 288 291 285 278 249 263 312 313 280 97 125 167 166 178 198 175 182 204 185 218 282 303 256 204 178 194 197 184 191 207 222 238 242 242 236 223 210 220 234 257 281 259 243 205 160 153 200 170 160 183 195 186 189 195 187 164 154 152 139 136 142
305 312 356 88 208 246 268 272 299 315 319 322 314 314 326 335 341 343 340 337 342 34 164 212 284 262 267 290 301 300 288 248 243 280 298 297 12 129 168 173 191 210 167 176 207 203 224 262 263 256 258 246 220 197 180 182 202 219 229 238 247 243 228 211 204 224 246 276 272 268 119 134 175 201 169 148 172 195 187 189 192 171 143 136 132 131 137 142
308 327 352 352 299 308 326 315 332 334 295 295 307 326 334 335 331 338 346 333 330 335 201 172 194 281 286 302 308 307 305 281 262 280 297 306 319 145 155 185 207 203 156 216 197 184 280 291 283 269 269 278 274 227 183 183 201 217 225 236 246 252 247 235 211 209 233 255 259 129 94 156 193 194 172 147 156 162 271 202 180 148 137 144 144 145 149 149
344 326 1 11 317 306 329 320 314 299 281 287 326 341 333 333 333 334 337 328 325 331 337 192 208 248 264 275 292 303 306 310 310 303 302 311 321 127 152 190 217 191 199 248 213 199 264 290 299 296 285 275 280 267 211 194 204 217 227 237 241 252 261 249 218 212 229 245 254 105 149 226 208 154 129 110 138 128 1 261 119 90 102 148 158 155 155 158
357 323 354 6 327 297 306 306 296 291 291 315 355 344 332 333 332 332 335 329 323 335 344 331 305 269 262 252 254 283 297 313 321 310 304 309 315 314 163 183 219 187 189 230 238 248 294 303 320 324 314 293 278 262 226 203 208 219 224 228 228 240 251 239 215 215 228 246 274 3 58 347 330 75 90 39 38 92 61 29 105 103 88 104 126 120 122 157
355 343 341 338 320 300 300 305 301 299 319 353 354 341 335 331 330 331 332 325 321 333 339 333 344 343 296 276 254 273 292 307 304 301 304 300 299 306 314 175 236 207 195 215 227 88 347 303 312 334 306 283 266 249 216 198 206 217 222 222 220 228 235 229 224 222 225 245 272 302 69 45 299 349 89 70 34 85 88 83 131 134 121 106 96 103 131 163
349 340 330 312 308 308 305 311 315 318 338 352 345 342 334 328 329 328 325 322 321 325 329 334 353 23 305 311 279 270 282 288 285 284 290 290 292 301 299 296 306 284 231 230 228 156 151 291 312 330 305 289 277 279 270 224 215 218 221 220 220 225 225 223 233 239 232 237 236 232 220 111 245 273 77 92 186 134 133 149 136 148 153 143 141 165 179 173
349 334 328 308 294 304 308 313 326 334 342 344 343 340 329 323 326 326 325 328 322 323 328 330 343 51 288 308 289 277 284 283 276 275 278 280 288 294 294 295 302 302 281 260 249 220 160 107 329 307 324 320 308 316 318 280 234 222 220 217 219 225 227 224 227 238 253 256 232 217 190 112 175 231 110 191 202 105 91 136 125 146 185 167 170 180 185 179
Height
837 835 834 833 832 831 829 828 827 825 825 823 822 821 819 818 817 816 814 813 811 810 808 806 804 802 799 797 794 792 789 786 783 781 779 776 775 776 776 777 777 777 777 777 777 774 771 769 768 767 767 765 764 762 760 757 754 758 765 770 770 766 760 755 752 749 747 741 739 742 742 744 743 738 732 732 738 741 738 734 734 736 740 746 749 752 756 761
837 836 834 833 832 830 829 828 826 825 824 823 821 820 819 817 816 815 814 812 811 809 807 806 804 802 800 796 794 792 790 787 783 779 775 774 775 775 776 776 777 777 778 777 776 773 770 767 764 764 764 763 760 758 759 755 753 758 762 763 759 756 750 744 743 739 738 738 733 732 736 740 739 734 730 739 748 745 743 742 740 741 744 746 747 752 756 760
837 836 834 833 832 830 829 827 826 825 823 822 820 819 818 817 816 814 813 812 810 809 807 805 803 801 799 796 793 792 790 786 780 773 772 773 774 775 775 775 776 776 777 777 775 773 770 767 763 761 761 761 757 755 756 753 752 752 755 757 747 745 745 737 735 734 733 732 729 728 730 736 736 732 731 738 745 744 745 748 747 746 747 747 746 750 755 759
837 836 834 833 832 830 829 827 826 825 823 822 820 819 818 816 815 814 812 811 810 808 807 805 803 801 799 796 793 791 790 783 774 771 772 773 774 775 775 775 776 776 776 776 775 773 770 767 764 761 760 759 754 752 752 749 748 746 746 747 739 740 742 733 731 731 729 726 726 727 729 733 732 731 732 735 743 746 742 740 741 741 742 744 744 747 752 758
837 835 834 833 831 830 828 827 825 824 822 821 820 818 817 816 814 813 812 811 809 808 806 805 802 800 798 795 793 792 791 781 771 772 773 773 774 774 775 775 776 775 775 775 773 771 769 766 764 762 760 757 753 751 748 741 741 743 739 735 734 737 736 729 729 730 727 725 725 727 730 729 724 728 730 731 741 745 737 729 728 729 732 739 742 745 751 757
837 835 834 832 830 829 828 826 825 823 822 820 819 818 816 815 814 813 812 810 809 808 806 804 802 800 797 795 792 792 792 779 768 772 773 772 774 774 775 775 775 775 775 774 771 769 766 764 764 763 760 756 752 748 744 737 736 742 737 729 730 732 731 727 727 727 725 727 728 727 725 721 723 728 725 726 734 734 726 719 720 723 727 735 742 746 751 756
836 835 833 832 830 829 827 826 824 823 821 820 818 817 816 814 813 812 810 809 808 807 806 804 802 800 797 794 790 788 788 776 767 771 772 773 774 773 774 774 774 774 773 773 769 766 763 762 762 760 759 756 751 745 741 736 734 739 736 728 727 725 724 725 724 722 722 725 726 722 720 721 726 727 722 723 725 724 721 715 715 723 728 733 738 743 751 755
836 835 833 832 830 828 827 825 823 822 820 819 817 815 814 812 811 810 809 808 807 806 805 803 802 800 798 797 791 785 780 772 769 772 771 772 773 773 774 773 774 773 771 770 767 765 762 760 759 757 758 754 748 743 739 738 735 734 731 726 724 721 718 721 724 722 720 720 719 721 724 722 718 717 719 719 716 715 718 717 717 724 729 731 735 741 749 755
836 834 832 831 829 827 826 824 822 821 819 817 816 814 813 811 810 809 808 807 806 805 804 803 802 800 799 798 794 789 776 769 770 772 771 772 773 773 773 772 772 771 769 768 766 764 761 759 756 753 755 750 745 742 739 741 737 728 724 723 722 718 714 717 722 722 721 718 715 720 726 721 712 713 720 715 708 707 711 715 717 725 731 732 735 740 746 753
835 834 832 830 828 827 825 823 821 819 818 816 814 813 812 810 809 807 806 805 804 804 803 803 801 800 800 796 794 788 773 768 771 771 771 772 772 773 772 772 771 769 768 766 764 763 760 757 753 750 750 747 744 741 737 737 732 723 720 720 718 716 713 714 719 718 718 718 716 719 721 716 710 718 727 714 703 705 709 712 714 723 730 730 734 738 743 750
835 833 832 829 828 826 824 822 820 819 817 815 814 812 811 809 808 806 805 804 803 803 803 802 801 800 798 796 793 783 770 769 771 770 772 771 771 772 771 770 769 768 766 764 763 760 758 755 752 751 749 746 743 741 736 731 727 722 720 719 715 714 714 713 715 714 715 717 715 717 719 713 709 717 721 710 701 705 711 715 716 720 724 727 732 737 742 747
835 833 831 829 827 825 823 822 820 818 816 814 813 811 809 808 806 804 803 803 802 802 801 800 801 800 798 795 788 776 769 770 770 769 770 770 770 770 769 769 768 767 766 764 762 759 757 755 753 753 750 744 743 743 736 728 725 722 721 723 717 714 716 714 712 711 712 713 709 715 727 723 715 711 706 702 701 705 713 718 720 721 722 728 733 737 741 745
834 832 830 829 827 825 823 821 819 817 815 813 811 809 807 805 803 802 801 801 800 800 799 799 799 798 798 790 777 771 770 770 769 769 768 769 769 768 767 767 766 766 765 763 761 759 757 754 753 752 748 745 744 740 731 725 725 724 721 722 722 721 717 709 708 710 710 708 702 713 733 730 717 707 700 700 701 706 716 720 721 723 725 729 734 736 740 743
834 832 830 828 826 824 822 820 818 816 814 811 809 807 804 802 801 799 799 799 797 797 796 797 797 797 796 784 770 769 769 768 768 767 766 767 766 766 765 764 763 763 762 761 760 759 757 754 752 751 748 746 743 737 733 728 724 725 725 722 723 727 719 704 704 711 711 705 698 709 729 726 714 706 700 700 703 709 717 719 720 723 725 728 732 736 739 741
834 831 829 828 825 823 821 819 817 814 812 809 806 804 801 799 798 796 797 796 795 795 794 795 795 794 790 777 766 766 766 767 766 764 765 764 763 763 762 760 760 760 760 759 759 758 757 755 754 753 749 744 743 744 743 737 726 724 731 731 724 723 719 705 699 704 708 705 698 707 724 721 710 704 697 696 703 711 716 716 717 721 723 726 730 734 738 739
833 831 829 827 824 822 820 818 815 813 810 807 804 801 797 796 795 794 795 794 793 793 794 793 790 791 787 772 764 764 763 763 761 761 763 762 762 761 760 760 758 758 759 758 757 756 755 754 752 751 748 745 746 748 749 746 736 725 729 733 724 719 721 711 698 694 697 701 700 704 715 715 705 699 694 693 702 711 715 715 715 718 722 725 728 732 736 738
832 830 828 826 823 821 819 817 814 812 808 805 802 797 794 793 792 793 792 792 792 791 792 789 783 786 781 766 763 761 758 758 759 761 762 762 763 761 761 760 758 758 757 756 755 754 753 752 751 750 748 746 743 745 752 754 745 731 726 728 721 716 717 712 701 692 691 701 705 701 704 706 702 696 693 694 700 708 713 713 713 716 720 723 726 729 732 736
832 829 827 825 822 820 818 815 813 810 807 804 799 793 791 790 790 791 790 791 791 791 791 785 783 783 770 760 762 759 755 757 758 760 761 761 762 761 761 760 758 757 754 753 751 751 752 750 749 750 747 746 743 743 750 749 740 731 725 724 721 713 709 707 703 693 691 703 709 702 698 703 704 698 694 695 698 703 708 709 709 712 716 720 723 725 728 733
831 828 826 824 821 819 817 814 812 809 806 802 796 791 785 785 787 787 788 788 788 787 783 776 778 776 762 757 759 755 754 756 756 758 760 760 761 760 759 758 756 756 755 753 748 747 750 749 750 752 747 744 740 737 739 736 729 724 717 716 719 714 707 704 699 690 690 702 704 698 697 703 707 700 696 695 694 699 703 703 705 708 711 716 720 721 724 731
830 828 826 823 821 818 816 813 810 808 806 802 798 792 784 783 785 784 783 784 780 777 771 767 768 764 758 757 756 753 753 753 753 754 756 757 758 757 755 755 754 754 754 752 746 741 744 750 750 748 744 737 733 731 729 726 723 720 715 713 713 711 708 700 693 687 687 693 693 691 696 702 703 698 696 695 693 697 702 701 702 704 707 713 717 718 720 726
829 827 825 822 820 817 815 812 809 807 806 804 802 797 788 788 791 788 785 781 774 771 767 763 762 759 755 754 754 754 753 753 751 749 752 753 754 756 753 752 755 754 751 747 744 737 739 748 745 739 736 730 726 725 724 724 722 721 719 715 710 705 703 695 689 686 683 687 688 689 699 702 697 694 693 694 695 697 698 698 698 699 704 710 713 714 716 721
828 826 824 822 819 816 814 811 808 806 805 804 803 798 792 792 796 795 792 783 771 767 765 761 760 757 753 753 754 755 755 755 753 749 750 751 751 754 751 749 753 751 745 743 744 742 741 743 738 731 728 726 724 720 721 722 721 722 719 718 713 701 696 693 687 684 681 685 689 688 696 701 695 691 691 690 692 693 691 690 689 693 701 708 710 710 713 718
828 825 823 821 818 816 812 809 807 806 805 804 801 798 796 796 797 796 796 788 772 762 759 756 756 754 751 752 750 751 754 753 752 748 744 747 749 749 749 748 748 746 742 740 741 744 742 735 730 727 723 723 723 719 718 719 720 721 719 719 715 703 698 695 688 684 679 680 684 684 688 693 692 691 689 684 684 687 687 683 683 688 697 704 705 706 709 717
826 824 823 820 817 815 811 808 806 804 804 803 800 798 798 798 798 797 796 790 774 758 751 748 747 747 746 746 746 748 751 749 749 745 738 741 746 746 748 747 745 743 739 736 735 737 735 724 718 722 723 722 722 719 717 718 719 718 715 714 712 706 699 690 682 679 678 677 676 681 688 689 687 692 691 680 677 683 684 685 688 690 694 698 699 701 705 713
825 824 821 819 817 813 810 809 805 804 803 801 799 799 800 799 799 798 796 791 774 751 743 743 742 742 741 744 747 746 748 747 745 742 737 737 743 745 743 742 744 743 737 734 732 731 727 718 712 716 720 720 722 718 714 715 717 715 710 707 706 703 696 687 678 677 688 689 673 677 696 693 682 687 689 679 676 681 683 686 690 691 692 694 696 699 701 709
824 823 820 818 816 812 809 807 805 805 802 799 800 800 800 800 798 799 799 794 773 747 742 743 741 742 742 744 746 747 751 748 740 739 738 737 740 742 742 740 739 739 735 731 730 727 722 716 711 712 714 716 720 719 711 708 715 715 705 700 703 700 694 692 684 679 689 689 669 667 689 695 685 685 684 677 678 682 683 685 685 687 690 690 693 695 697 706
823 821 819 816 814 813 810 807 807 805 801 800 801 801 801 800 799 799 798 789 765 742 741 743 741 744 744 742 743 749 754 746 738 737 735 737 739 741 745 742 737 735 731 731 734 727 720 718 714 711 711 713 717 719 711 705 711 712 698 694 700 700 697 695 686 679 678 675 668 662 673 692 695 684 676 674 679 681 682 682 681 683 686 686 689 691 694 702
822 819 817 814 813 813 812 810 809 804 802 803 802 802 802 800 799 799 799 786 755 735 737 741 742 744 744 742 741 746 746 741 743 741 734 737 739 740 744 742 738 734 727 733 738 726 717 720 717 712 713 713 711 710 708 705 706 704 694 690 693 695 696 690 682 680 674 674 679 665 662 690 699 679 667 670 677 680 678 673 673 679 682 683 686 688 690 697
820 817 815 812 811 811 810 810 809 806 805 804 803 803 801 801 802 799 800 784 751 734 736 740 745 745 744 745 743 743 741 740 745 743 737 739 738 739 742 738 735 734 728 730 735 727 718 715 712 711 713 712 706 701 702 704 702 696 691 689 688 688 689 685 681 682 680 683 685 667 659 687 702 683 668 670 673 675 670 663 665 674 678 680 683 684 687 693
817 815 813 811 810 809 809 809 809 807 805 804 803 802 800 801 801 795 791 777 754 741 738 741 748 748 748 752 751 746 744 743 743 742 745 745 739 738 737 734 733 733 731 728 729 727 720 713 710 711 710 707 703 698 698 702 699 694 692 692 691 689 687 684 680 685 696 695 681 663 658 680 702 688 667 665 663 662 662 659 662 670 674 676 679 680 683 690
815 813 811 810 809 810 808 807 807 806 805 805 803 802 801 800 799 792 775 761 754 749 745 748 754 757 760 765 765 759 753 750 747 747 750 748 746 744 740 739 739 737 736 732 728 724 721 719 716 713 709 705 705 701 696 698 698 696 694 696 700 697 692 692 689 694 711 703 675 659 657 675 697 685 663 656 650 648 654 655 659 668 671 672 674 675 678 685
813 811 810 810 809 809 808 806 806 807 806 805 803 802 802 801 799 789 768 756 761 761 758 760 761 762 766 769 770 765 759 756 751 748 747 745 750 751 745 744 744 744 742 735 729 725 720 717 714 714 710 706 711 708 700 700 701 701 697 697 709 712 707 711 709 706 713 702 676 660 662 675 680 665 653 650 642 641 645 645 652 663 666 667 669 671 674 680
811 810 809 809 808 808 808 807 807 807 806 805 804 800 804 805 792 774 764 764 768 766 764 766 763 762 766 769 764 757 755 754 748 746 744 741 746 746 743 743 743 746 744 733 729 728 723 716 712 715 711 707 711 710 708 707 704 704 699 696 708 716 720 727 721 714 716 705 680 660 665 678 670 650 646 644 635 633 636 638 645 654 660 663 664 667 671 676
809 809 808 808 808 808 808 807 807 807 806 805 804 802 806 803 782 767 767 769 768 765 763 767 767 764 765 765 758 750 752 749 740 742 743 739 742 744 743 743 738 741 745 739 730 727 730 725 715 714 712 708 708 705 704 704 703 702 692 689 700 705 714 724 720 717 716 703 681 665 669 679 670 650 639 636 630 626 629 634 640 647 653 657 660 663 669 674
808 808 807 807 808 808 807 807 807 807 806 805 806 806 802 792 776 772 775 773 771 771 768 769 771 770 764 756 748 744 748 746 737 738 740 737 741 741 738 735 729 734 747 747 733 724 729 726 712 708 706 704 706 701 698 702 706 700 688 691 699 696 700 710 708 703 702 699 685 671 668 664 655 641 628 630 631 624 625 631 637 645 648 653 659 661 666 672
807 806 806 806 806 806 807 807 806 806 806 805 807 801 787 780 777 776 777 776 778 780 778 771 768 770 763 751 744 741 744 745 739 737 738 734 734 730 727 727 724 726 735 739 731 725 729 723 710 706 704 701 703 700 698 704 707 701 696 699 693 682 687 704 708 696 694 705 692 672 668 659 652 645 629 628 633 625 624 630 636 642 645 651 657 659 664 669
807 804 803 803 804 806 806 806 807 807 805 806 809 796 779 775 775 773 775 777 778 783 785 777 769 769 762 752 749 747 746 745 739 739 740 731 724 719 718 721 720 720 725 728 726 725 729 727 715 707 706 700 697 699 699 697 699 703 705 699 685 679 682 694 708 705 704 712 694 673 673 667 663 659 639 632 635 629 625 630 636 641 643 649 654 656 662 666
808 804 801 801 803 804 805 806 806 806 804 806 806 793 780 776 770 768 774 775 775 781 786 781 774 771 766 759 753 748 747 745 739 740 738 728 721 716 713 716 716 715 717 721 724 725 731 736 722 705 702 698 695 701 705 697 692 696 697 686 682 692 694 693 703 708 708 711 697 680 674 666 658 650 638 636 635 629 628 632 638 641 642 647 651 654 659 664
809 803 799 800 802 802 804 805 805 805 807 805 797 785 776 771 766 765 770 772 775 782 784 781 777 773 769 763 757 750 746 742 736 735 734 728 723 718 712 711 713 711 709 714 722 726 735 746 733 704 691 694 695 701 708 704 694 691 693 687 681 684 688 689 691 692 694 700 698 688 679 665 646 633 633 636 632 628 629 633 639 640 640 645 649 653 658 665
806 801 797 799 801 801 802 803 803 806 807 800 789 781 774 768 764 763 764 767 774 779 782 781 779 776 769 762 757 751 746 741 734 732 731 723 719 717 710 708 713 713 710 713 721 727 735 746 741 712 689 692 698 698 701 701 696 696 702 703 693 679 675 681 681 676 680 691 695 691 684 664 637 624 626 629 629 626 626 632 638 637 637 642 646 651 656 663
805 799 796 798 801 800 800 803 803 805 803 793 781 775 770 765 764 763 759 762 770 774 776 778 778 776 772 765 757 749 747 744 735 731 724 713 712 715 707 704 712 713 712 716 720 725 730 734 734 722 703 695 694 689 688 690 691 694 700 704 699 683 676 688 692 678 672 680 681 681 681 659 628 618 619 620 625 625 623 630 635 634 636 640 644 648 653 659
804 798 795 797 800 799 799 797 795 794 792 783 772 767 765 763 763 761 756 759 768 771 772 775 776 775 772 766 756 748 746 742 732 728 720 706 707 712 705 702 708 710 714 718 716 718 724 726 728 724 708 692 684 681 683 683 683 687 691 692 688 678 674 688 698 689 680 676 666 665 671 651 620 612 616 619 623 622 621 628 633 634 635 638 643 647 651 656
799 795 796 798 798 798 798 791 782 781 781 775 768 764 764 762 758 756 753 755 764 770 771 773 776 774 768 761 756 751 749 742 728 719 714 704 701 703 700 702 708 711 717 721 719 718 721 725 730 723 702 685 678 675 677 680 682 689 688 682 678 671 665 672 681 682 684 680 667 666 671 651 623 614 617 620 623 623 624 628 632 634 634 636 641 645 650 656
799 793 794 797 797 797 795 788 782 782 779 772 768 766 764 758 753 755 754 751 756 766 772 773 774 774 768 761 758 752 750 748 730 711 707 706 701 698 698 701 707 710 716 721 721 723 726 727 730 723 706 699 698 691 687 687 689 693 690 681 674 666 661 666 669 671 678 674 662 666 670 651 627 618 618 621 624 625 626 627 628 631 633 635 639 643 650 656
802 791 787 793 797 796 791 784 783 785 781 774 771 768 762 755 750 752 752 749 750 761 769 769 768 772 769 762 757 748 743 746 736 716 707 703 698 696 697 701 704 705 710 713 712 718 727 726 727 725 716 714 715 706 698 694 693 694 690 683 677 666 660 667 671 675 682 675 661 661 662 647 631 624 624 625 627 627 627 626 627 628 631 634 638 645 651 656
803 793 789 792 792 789 784 778 778 782 780 777 773 765 759 756 752 749 750 748 748 755 764 766 765 769 768 760 754 743 732 731 728 718 708 701 697 695 695 698 701 701 704 706 705 712 722 722 721 722 715 707 700 690 685 688 695 697 691 685 679 666 655 658 669 679 683 678 669 658 652 651 643 632 629 630 631 631 630 628 628 628 632 636 640 646 652 656
802 798 798 801 796 786 781 778 777 780 779 775 769 761 759 760 756 751 750 749 746 748 757 765 767 767 764 759 753 742 729 721 718 715 709 701 695 692 694 697 698 699 702 703 703 710 720 722 716 712 709 702 690 679 676 683 690 692 687 683 678 669 659 659 667 673 673 678 678 659 649 656 650 634 632 634 632 635 635 632 630 631 635 640 643 647 652 657
806 803 802 808 806 794 788 785 781 781 778 770 765 762 762 763 760 756 751 747 744 742 747 758 764 763 761 758 753 743 731 722 718 716 712 705 698 694 695 697 695 696 700 702 701 705 714 718 712 707 704 697 687 680 676 678 682 683 682 680 676 673 670 665 664 664 664 673 676 660 651 656 648 636 639 638 633 635 637 633 631 635 639 641 644 649 653 657
812 810 806 810 809 800 794 788 782 777 770 764 764 766 766 765 763 759 753 749 746 741 742 749 754 756 754 748 745 742 734 726 725 721 713 710 707 701 698 699 696 693 698 702 700 700 708 712 709 710 708 699 692 685 677 675 680 680 678 676 674 672 668 660 658 658 659 662 662 657 659 664 657 647 644 640 635 635 636 635 634 639 646 648 650 655 658 660
819 818 815 815 811 801 793 786 780 772 764 761 767 769 768 768 766 760 754 753 750 743 741 744 748 752 749 739 737 737 730 725 727 723 715 714 712 704 700 699 695 691 694 699 698 701 710 714 712 717 719 707 692 680 671 673 678 678 673 668 667 668 665 659 656 657 659 660 658 659 668 673 664 650 644 642 640 639 641 642 640 642 649 655 659 661 663 666
825 823 822 821 813 801 794 786 777 771 766 766 771 773 772 771 768 761 754 750 749 746 741 740 745 751 749 740 737 736 728 722 723 719 714 712 709 703 698 694 691 694 695 695 696 702 712 717 716 720 722 710 692 682 677 672 671 674 673 666 664 665 663 660 657 655 657 661 663 665 670 671 660 649 647 647 644 643 644 645 645 645 647 655 664 668 667 666
828 825 822 820 813 802 795 786 776 774 775 773 774 776 776 772 766 761 755 749 745 743 738 737 740 745 747 743 737 732 725 718 713 711 710 708 705 702 699 693 691 695 697 695 695 698 707 719 723 722 720 712 701 696 692 683 680 680 672 662 661 661 658 657 655 653 652 656 662 665 664 664 659 652 652 652 648 648 648 646 647 647 647 651 657 662 662 661